Tracking 19477 objects as of 16-Jan-2019
HD Live streaming from Space Station
objects crossing your sky now

OPS 6630 (2)

Track OPS 6630 (2) now!
10-day predictions
OPS 6630 (2) is classified as:


NORAD ID: 6938
Int'l Code: 1973-088D
Perigee: 1,421.0 km
Apogee: 1,463.3 km
Inclination: 96.9 °
Period: 114.6 minutes
Semi major axis: 7813 km
RCS: 0.3492 m2 (medium)
Launch date: November 10, 1973
Source: United States (US)
Launch site: AIR FORCE WESTERN TEST RANGE (AFWTR)
aabbcc
Your satellite tracking list
Your tracking list is empty




NASA's NSSDC Master Catalog

Two Line Element Set (TLE):
1  6938U 73088D   19015.96145898 -.00000019 +00000-0 -98023-7 0  9999
2  6938 096.9416 075.3134 0027050 051.5987 071.8535 12.57081990072724
Source of the keplerian elements: AFSPC